Showing default

OV3-3, 2389

Orbit data source: Space-Track

OV3-3, 2389 is a payload satellite owned by USAF OAR (US) in LEO that was launched on Thu, 04 Aug 1966 UTC via an SCOUT B launch vehicle from the Air Force Western Test Range (AFWTR). Payloads include a variety of satellites, spacecraft, and rockets equipped with specific instruments for various scientific and technological missions. These include communications satellites like Starlink; space stations such as the ISS; scientific satellites like the Hubble; Earth observation satellites from companies like Planet Labs, Umbra, and HawkEye 360; GPS; miniature CubeSats for education and research; and military/defense satellites.

Loading next visibility...
OV3-3 details
Identifier
2389, 1966-070A
Orbit
LEO
Last TLE update18 hours ago
Origin
Flag of USUSAF OAR (US)
ManufacturerSpace General
MissionCivil Science
Bus & MotorOV3, Unknown motor
Mass77 kg wet, 77 kg dry
Launch date (UTC)
1966-08-04 (58 years ago)
Launch vehicle
SCOUT B
Launch site
Air Force Western Test Range (AFWTR)
Object type
Payload
Rocket body
Debris
Shape & HBROct Cyl + 2 Rod, 1.5 m
Radar Cross Section0.548 m², Medium (>0.1 m² and < 1m²)

Expand to show TLE details & history

TLE from 18 hours ago
0 OV3-3
1 02389U 66070A   24355.84768152  .00016763  00000-0  80267-3 0  9990
2 02389  81.3313  84.4778 1082931 110.8266 261.2153 13.28864766526339
Epoch: 2024-12-20T20:20Z
Definitive object data (Epoch: 2024-12-20T20:20:39.683Z)
Latitude-0.00008°
Longitude49.40513°
Altitude1,362.013 km
Speed7.078 km/s
True Right ascension05h 37m 54s
True Declination0° 00' 00"
Sunlit
Object was in full shadow at TLE epoch
Visualization TLE readout
Latitude-75.82193°
Longitude11.84968°
Altitude1,984.962 km
Speed6.523 km/s
Apparent Right ascension01h 36m 27s
Apparent Declination-61° 02' 41"
Sunlit
Object is in daylight
Visualization observer readout
Local Sidereal Time12:59:03
Azimuth192.175° SSW
Elevation-68.1°
Doppler factor1
Orbital elements
Apogee altitude1,963.339 km
Perigee altitude333.221 km
Semi-major axis7,526.417 km
Eccentricity0.1082931
Inclination81.3313°
RAAN84.4778°
Arg. of periapsis110.8266°
True anomaly249.28649°
Mean anomaly261.2153°
Eccentric anomaly255.21597°
Mean motion3.324 °/min
BSTAR0.00080267
Orbital period108.3 mins
Loading maneuver chart data...
Loading historical data...
Loading historical data...
Loading historical data...
Loading historical data...
Loading historical data...
Loading historical data...
Loading historical data...
Other satellites on launch #70 in the year 1966 (1966-08-04 UTC)

OV3-3 Visibility forecast

Observer location: undefined°, undefined

Span
Click to sort rows by Start time (UTC) header in descending order
Start Az.
Max El. time (UTC)
Max El. Az.
Max El.
End time (UTC)
End Az.
4 mins2024-12-21 18:37:00.721Z307.709° NW2024-12-21 18:39:00.721Z249.045° W22.951°2024-12-21 18:41:00.721Z210.958° SW
8 mins2024-12-22 06:48:00.721Z183.553° SSW2024-12-22 06:52:00.721Z157.792° S43.753°2024-12-22 06:56:00.721Z12.183° NNE
|